Wind_Speed
7 6 7 7 7 7 7 6 6 6 6 6 5 5 5 5 5 5 5 6 6 6 6 6 6 6 7 7 8 8 9 9 9 9 10 10 11 11 10 11 10 11 11
7 8 8 8 8 8 8 7 7 7 7 7 7 6 6 6 5 6 7 6 7 7 7 7 6 7 7 8 8 8 9 10 10 10 10 10 11 11 11 11 11 11 11
8 8 9 9 9 9 8 8 8 8 8 8 8 8 8 7 7 7 7 8 8 8 8 8 8 8 8 8 8 8 9 9 10 10 10 10 10 11 11 12 12 12 12
8 9 9 9 9 9 9 8 8 8 8 8 8 8 8 8 8 8 8 8 9 10 10 10 9 9 9 9 9 9 9 9 10 11 11 11 11 11 12 12 12 13 13
9 9 9 9 9 9 9 9 9 9 9 8 8 8 8 8 9 9 9 9 9 10 11 10 10 10 11 10 10 10 10 11 11 11 11 11 12 12 12 13 12 13 13
9 9 9 9 10 10 10 10 10 9 9 9 9 9 9 9 10 10 10 10 10 10 10 11 11 11 11 11 11 11 12 12 12 12 12 12 13 13 13 14 14 14 14
10 10 10 10 11 11 11 11 11 10 10 10 10 10 10 10 10 10 11 11 11 11 11 11 12 12 12 11 11 12 12 12 13 13 13 14 14 14 14 14 15 15 15
11 11 11 12 12 12 12 12 12 11 11 11 10 10 11 11 11 12 12 12 12 12 12 12 12 12 12 12 12 13 13 13 13 14 14 15 15 15 15 15 16 16 16
12 12 12 13 13 12 12 12 12 12 11 11 12 12 12 12 12 13 13 14 14 14 14 14 14 14 14 13 13 13 13 14 14 15 15 15 16 16 16 17 16 16 16
12 13 13 13 13 13 13 13 12 12 12 13 13 13 13 13 13 13 14 14 14 15 15 15 15 15 14 14 14 14 14 15 16 17 17 17 17 17 18 18 18 18 18
14 14 14 14 14 14 13 13 13 13 13 14 15 15 15 14 14 15 15 15 15 15 16 16 15 15 15 15 14 15 15 15 16 17 17 18 18 18 18 18 19 19 18
14 14 14 14 14 14 13 13 13 13 14 14 14 15 15 15 15 16 16 16 15 15 15 15 15 15 15 15 15 15 16 16 16 16 17 17 18 18 19 19 19 20 20
15 15 15 14 14 15 15 14 14 14 14 14 15 15 15 15 15 16 16 16 16 16 16 15 15 15 15 15 16 17 17 16 16 16 16 17 17 18 19 19 20 20 21
16 16 16 16 15 15 15 15 15 15 15 15 15 16 16 16 16 16 16 16 16 16 16 16 16 16 16 17 17 17 17 16 16 17 17 17 17 18 19 19 20 21 21
16 16 16 16 15 16 16 16 16 16 16 16 16 16 16 16 17 17 16 16 16 16 16 16 17 17 17 18 18 18 17 17 17 17 18 18 18 18 20 20 20 21 22
16 16 16 16 16 16 16 17 16 17 17 17 17 17 17 17 17 17 17 17 16 17 17 17 17 17 18 18 19 19 19 19 19 18 19 19 19 20 21 21 22 23 23
17 17 17 17 18 18 18 18 18 18 18 18 18 18 18 18 18 18 18 17 17 18 18 18 18 18 19 19 20 20 20 20 19 19 20 20 20 21 21 22 23 23 24
18 18 17 17 18 18 19 19 19 19 19 19 19 20 19 19 19 19 19 19 19 19 18 18 19 19 19 20 20 20 19 19 19 19 20 21 21 21 22 22 23 23 24
19 19 19 19 19 20 21 20 20 20 20 21 21 20 20 20 20 20 20 20 20 20 20 19 20 20 21 21 21 21 20 20 20 21 21 21 22 22 23 23 23 24 24
21 21 21 21 21 21 21 21 21 21 21 21 21 21 21 21 21 21 21 21 21 21 21 21 21 22 22 22 22 22 21 21 22 22 23 23 23 24 24 24 25 25 25
21 21 21 22 22 22 22 22 22 22 22 22 22 22 22 22 22 22 22 22 22 23 23 23 23 24 24 24 23 23 23 23 24 24 24 25 25 25 26 26 26 27 27
22 22 22 22 22 22 22 22 22 22 22 22 22 23 23 23 23 23 23 23 23 23 23 24 24 24 24 25 25 24 24 24 25 25 25 26 26 26 27 27 27 27 28
23 23 23 23 23 24 24 23 23 23 23 23 23 23 24 24 24 24 24 25 25 24 24 24 25 25 25 26 26 25 25 26 26 26 26 26 26 27 28 29 29 29 29
25 24 24 24 24 25 25 25 24 24 24 24 24 24 25 25 26 26 26 26 26 26 26 26 26 26 26 27 27 27 27 27 28 28 28 28 28 28 29 29 30 29 30
26 26 25 25 25 25 25 25 25 25 25 25 25 25 25 26 26 26 26 26 26 26 26 26 27 27 27 28 28 29 29 29 29 29 29 29 29 30 31 31 30 30 31
27 27 27 27 27 27 26 26 26 25 25 25 25 25 26 26 26 26 25 25 25 26 26 26 26 27 28 28 29 29 30 30 30 31 30 30 31 31 31 31 31 31 32
Wind_Direction
313 313 312 315 316 316 315 311 306 304 301 294 289 280 279 276 271 265 257 255 252 252 253 253 253 252 252 255 258 256 254 253 250 251 253 257 261 264 263 263 265 264 264
308 309 308 308 308 308 306 302 300 297 294 290 282 281 280 279 278 274 266 263 259 257 259 254 250 252 257 257 258 254 252 249 251 253 255 259 261 261 264 265 265 267 267
304 305 304 304 304 305 304 301 299 295 290 285 279 279 276 276 278 278 272 267 264 261 261 254 255 258 260 258 258 258 256 252 254 257 258 258 261 266 265 265 265 268 270
301 302 301 302 303 303 303 299 297 294 290 285 278 275 275 275 276 279 275 268 263 263 266 261 260 260 260 261 261 261 259 258 258 259 259 262 264 264 266 267 266 267 269
298 301 301 300 299 299 300 297 297 292 288 284 279 275 274 272 273 276 276 272 267 266 265 263 265 264 262 260 258 261 260 260 263 263 263 262 262 263 265 266 267 269 269
299 300 300 298 296 295 296 296 294 292 287 283 280 276 274 273 274 274 274 273 270 267 265 265 269 270 266 265 263 262 260 262 263 262 263 265 265 266 266 265 265 268 272
297 299 299 297 295 293 293 294 293 289 287 284 279 276 275 275 275 275 273 271 270 271 270 269 272 273 272 270 269 266 264 266 264 263 265 266 267 268 267 266 267 269 272
291 294 296 295 294 293 293 292 291 289 286 284 281 279 280 279 277 276 273 272 270 268 268 270 272 272 272 273 272 271 270 269 268 267 266 266 266 268 269 269 269 270 272
290 293 293 293 292 292 291 290 287 286 284 284 283 283 282 282 279 277 275 272 270 268 270 270 270 271 271 271 272 273 273 271 271 271 270 270 270 271 272 271 271 272 273
292 294 293 292 292 292 291 289 286 282 282 283 284 285 283 282 280 277 276 273 270 270 272 270 271 272 273 272 271 274 276 276 274 272 271 271 272 273 273 272 271 271 273
290 292 292 292 293 292 290 288 286 284 285 287 286 285 284 283 280 278 277 275 271 272 272 272 272 273 274 274 275 276 278 279 278 275 273 272 271 271 271 271 271 272 273
289 290 292 292 292 291 290 287 286 285 286 287 287 287 287 283 280 278 276 274 271 271 272 272 273 274 276 278 278 280 281 279 278 277 275 272 271 271 271 271 271 272 272
289 290 291 291 291 290 288 285 284 284 285 286 286 287 286 285 282 278 276 273 272 272 271 271 273 275 277 279 281 282 283 280 279 277 275 273 270 271 273 271 271 272 272
289 289 288 289 289 289 287 284 283 284 285 285 284 283 284 283 282 279 277 276 274 273 272 271 272 273 275 279 281 283 285 283 281 279 277 275 274 274 275 275 275 274 274
289 289 289 289 289 289 287 285 284 284 284 283 283 283 283 281 280 277 275 275 275 273 272 271 272 273 276 278 280 281 282 283 282 280 278 276 276 276 277 277 277 276 276
288 288 287 287 287 287 287 285 283 284 285 284 284 284 282 281 279 276 275 275 275 273 272 272 273 275 277 279 280 281 281 280 281 281 279 278 277 278 279 279 278 279 278
285 286 285 285 284 284 287 286 284 283 284 284 284 283 282 281 282 279 277 277 275 273 272 272 273 275 278 280 279 279 279 279 279 280 279 279 279 280 280 280 281 281 280
283 284 285 284 284 284 285 285 285 284 283 285 286 285 282 282 281 280 278 276 274 273 272 272 274 276 278 280 279 279 279 279 279 280 280 280 280 281 282 282 282 282 282
285 285 285 284 283 284 285 284 283 283 283 284 284 284 282 281 280 279 278 277 276 274 273 273 274 276 278 280 279 278 280 280 281 282 282 281 282 282 282 283 282 281 282
284 286 286 286 286 287 286 285 285 285 285 284 282 282 282 281 280 279 278 277 275 274 274 273 273 275 277 279 279 278 279 281 281 282 282 282 282 282 282 283 283 283 281
283 284 285 286 286 287 287 286 285 285 285 283 282 282 282 282 281 280 280 278 275 273 273 273 273 275 276 277 278 278 279 280 281 281 281 281 282 282 283 285 285 283 280
282 283 283 284 284 285 286 286 285 285 284 284 283 282 281 281 280 280 279 278 277 276 274 274 273 274 275 276 277 278 279 280 281 281 281 281 281 282 284 286 285 282 280
280 280 280 281 282 284 285 286 285 285 284 285 285 283 281 280 280 280 280 279 277 275 274 274 274 275 275 275 276 277 279 280 280 281 281 282 282 282 284 286 284 282 280
278 278 278 279 281 283 284 285 285 284 284 285 285 284 283 281 281 281 281 280 278 277 275 274 274 274 275 275 276 277 279 279 280 282 282 282 283 283 285 286 284 282 280
276 277 277 277 279 281 282 283 284 283 283 284 284 284 284 283 282 281 280 280 280 279 278 275 273 274 274 276 277 278 278 279 281 282 282 282 284 285 284 285 284 282 281
274 275 275 276 278 279 280 282 283 284 283 283 283 284 283 283 282 282 281 281 281 280 279 277 275 275 276 276 276 277 279 280 281 282 282 283 285 286 285 284 283 282 281
Height
5867 5866 5865 5864 5863 5862 5860 5859 5858 5857 5856 5855 5854 5854 5854 5853 5852 5852 5852 5852 5852 5852 5852 5851 5851 5851 5851 5852 5851 5851 5851 5851 5851 5851 5851 5851 5851 5851 5851 5851 5851 5850 5850
5866 5865 5864 5863 5861 5860 5859 5858 5856 5855 5855 5854 5853 5852 5852 5851 5851 5851 5851 5850 5850 5850 5850 5850 5850 5850 5850 5850 5849 5849 5848 5848 5848 5849 5849 5849 5849 5848 5848 5848 5848 5847 5847
5864 5863 5862 5861 5860 5859 5857 5856 5855 5854 5853 5852 5851 5851 5850 5850 5849 5849 5849 5848 5848 5848 5848 5848 5848 5847 5847 5847 5847 5847 5846 5846 5846 5846 5847 5847 5846 5846 5846 5845 5845 5844 5844
5862 5861 5860 5859 5858 5857 5856 5854 5853 5852 5851 5850 5850 5849 5849 5848 5848 5847 5847 5846 5846 5846 5845 5845 5845 5845 5845 5844 5844 5844 5844 5844 5844 5844 5844 5844 5843 5843 5843 5843 5842 5841 5841
5860 5859 5858 5857 5856 5855 5854 5853 5851 5850 5849 5848 5848 5847 5847 5846 5846 5845 5845 5844 5843 5843 5843 5842 5842 5842 5842 5842 5841 5841 5841 5841 5841 5841 5841 5840 5840 5840 5840 5839 5839 5838 5838
5858 5857 5856 5855 5854 5853 5852 5851 5850 5848 5847 5846 5846 5845 5845 5844 5843 5843 5842 5842 5841 5841 5840 5840 5839 5839 5839 5838 5838 5838 5838 5838 5838 5837 5837 5837 5837 5836 5836 5836 5835 5835 5834
5856 5855 5854 5853 5852 5851 5849 5848 5847 5846 5845 5844 5843 5843 5842 5841 5841 5840 5839 5839 5838 5838 5837 5837 5837 5836 5835 5835 5835 5834 5834 5834 5834 5834 5833 5833 5833 5832 5832 5832 5831 5831 5830
5853 5852 5851 5850 5849 5848 5847 5846 5844 5843 5842 5842 5841 5840 5839 5839 5838 5837 5836 5836 5835 5835 5834 5834 5833 5833 5832 5831 5831 5831 5830 5830 5830 5829 5829 5829 5828 5828 5828 5828 5827 5827 5827
5850 5849 5848 5847 5846 5845 5844 5842 5841 5840 5840 5839 5838 5837 5836 5835 5835 5834 5833 5832 5832 5831 5831 5830 5830 5829 5828 5828 5827 5827 5826 5826 5825 5825 5824 5824 5824 5823 5823 5823 5823 5823 5822
5847 5846 5844 5843 5842 5841 5840 5839 5838 5837 5836 5836 5835 5834 5833 5832 5831 5830 5829 5828 5828 5827 5827 5826 5825 5825 5824 5823 5823 5822 5821 5821 5820 5820 5819 5819 5818 5818 5818 5818 5817 5817 5817
5844 5842 5841 5840 5839 5837 5836 5836 5835 5834 5833 5832 5831 5830 5829 5828 5827 5826 5825 5824 5823 5823 5822 5822 5821 5820 5820 5819 5818 5817 5817 5816 5815 5814 5814 5813 5813 5813 5812 5812 5812 5812 5812
5840 5839 5838 5836 5835 5834 5833 5832 5831 5830 5829 5828 5827 5826 5825 5823 5822 5821 5821 5820 5819 5818 5818 5817 5816 5816 5815 5815 5814 5813 5812 5810 5809 5809 5808 5807 5807 5807 5807 5807 5806 5806 5806
5836 5835 5834 5833 5831 5830 5829 5828 5827 5826 5825 5824 5823 5822 5820 5819 5818 5817 5816 5815 5814 5813 5813 5812 5812 5811 5811 5810 5809 5808 5806 5805 5804 5803 5803 5802 5802 5802 5801 5801 5801 5800 5800
5832 5831 5830 5828 5827 5826 5825 5824 5823 5822 5820 5819 5818 5817 5816 5814 5813 5812 5811 5810 5809 5809 5808 5808 5807 5807 5806 5805 5804 5803 5801 5800 5799 5798 5798 5797 5797 5796 5796 5795 5795 5794 5794
5827 5826 5825 5824 5823 5822 5820 5819 5818 5817 5816 5814 5813 5812 5811 5809 5808 5807 5806 5805 5804 5804 5803 5803 5802 5802 5801 5800 5799 5798 5796 5795 5794 5793 5793 5792 5792 5791 5790 5790 5789 5788 5787
5823 5822 5821 5820 5818 5817 5816 5815 5814 5812 5811 5810 5808 5807 5805 5804 5803 5802 5801 5800 5800 5799 5798 5798 5797 5797 5796 5795 5794 5792 5791 5790 5789 5788 5787 5787 5786 5785 5784 5784 5783 5782 5781
5818 5817 5816 5815 5813 5812 5811 5810 5809 5807 5806 5804 5803 5801 5800 5798 5797 5796 5796 5795 5794 5794 5793 5793 5792 5791 5791 5790 5788 5787 5786 5785 5784 5783 5782 5781 5780 5779 5778 5777 5776 5775 5774
5813 5812 5811 5809 5808 5807 5806 5804 5803 5802 5800 5799 5797 5796 5794 5793 5792 5790 5790 5789 5788 5788 5787 5787 5786 5786 5785 5784 5782 5781 5780 5779 5778 5777 5776 5775 5774 5773 5772 5771 5769 5768 5766
5807 5806 5805 5804 5803 5801 5800 5798 5797 5796 5794 5793 5791 5790 5788 5787 5786 5785 5784 5783 5782 5782 5781 5781 5780 5780 5779 5778 5776 5775 5774 5773 5772 5771 5770 5769 5768 5767 5765 5764 5762 5761 5759
5802 5800 5799 5798 5797 5795 5794 5792 5791 5789 5788 5787 5785 5783 5782 5781 5779 5778 5777 5776 5776 5775 5775 5774 5774 5773 5772 5771 5770 5769 5768 5767 5766 5765 5764 5762 5761 5760 5758 5757 5755 5753 5751
5796 5794 5793 5792 5790 5789 5787 5785 5784 5783 5781 5780 5778 5777 5775 5774 5773 5771 5770 5770 5769 5768 5767 5767 5766 5766 5765 5764 5763 5762 5761 5760 5759 5758 5757 5755 5754 5752 5751 5749 5747 5745 5743
5789 5788 5787 5785 5784 5782 5780 5779 5777 5776 5774 5773 5771 5770 5768 5767 5766 5764 5763 5762 5761 5760 5759 5759 5758 5758 5757 5757 5756 5755 5754 5753 5752 5750 5749 5748 5746 5745 5743 5741 5739 5737 5735
5782 5781 5780 5779 5777 5776 5774 5772 5771 5769 5767 5766 5764 5763 5761 5760 5758 5757 5756 5754 5753 5752 5751 5751 5750 5750 5749 5748 5748 5747 5746 5745 5744 5742 5741 5739 5738 5736 5734 5732 5730 5728 5726
5775 5774 5773 5772 5770 5769 5767 5766 5764 5762 5760 5759 5757 5756 5754 5752 5751 5749 5748 5746 5745 5744 5743 5742 5741 5741 5741 5740 5739 5738 5737 5736 5735 5733 5732 5730 5728 5727 5725 5723 5721 5719 5717
5767 5766 5765 5764 5763 5761 5760 5758 5757 5755 5753 5752 5750 5748 5746 5744 5743 5741 5739 5738 5736 5735 5733 5733 5732 5732 5732 5731 5730 5729 5728 5727 5726 5724 5722 5721 5719 5717 5715 5713 5711 5709 5707
5758 5757 5756 5755 5754 5753 5752 5751 5749 5747 5745 5744 5742 5740 5738 5737 5735 5733 5731 5729 5728 5726 5724 5723 5723 5723 5722 5721 5720 5720 5718 5717 5716 5714 5713 5711 5709 5707 5705 5703 5701 5699 5697